Location: De Greiden
(52.9496°N, 5.9137°E)
Time: 23:48:45
(UTC+00:00)

ATLAS 5 CENTAUR R/B - Pass Details

Date: 24 January 2021
Orbit: 511 x 1147 km, 63.3° (Epoch: 16 February)

Event Time Altitude Azimuth Distance (km) Brightness Sun altitude
Rises 17:23:19 0° 247° (WSW) 2,711 7.0 -11.4°
Reaches altitude 10° 17:25:27 10° 254° (WSW) 1,873 5.6 -11.7°
Maximum altitude 17:29:30 47° 329° (NNW) 840 2.3 -12.3°
Enters shadow 17:33:36 13° 41° (NE) 1,950 3.6 -12.9°
